Regional Weather Roundup
Issued by NWS

Home | Current Version | Previous Version | Graphics & Text | Print | Product List | Glossary On
Versions: 1 2 3 4 5 6 7 8 9 10 11 12 13 14 15 16 17 18 19 20 21 22 23 24 25 26 27 28 29 30 31 32 33 34 35 36 37 38 39 40 41 42 43 44 45 46 47 48 49 50
174
ASUS45 KBOI 241310
RWRID

IDAHO REGIONAL WEATHER ROUNDUP
NATIONAL WEATHER SERVICE BOISE ID
600 AM MST FRI NOV 24 2017

NOTE: "FAIR" INDICATES FEW OR NO CLOUDS BELOW 12000 FEET
WITH NO SIGNIFICANT WEATHER AND/OR OBSTRUCTIONS TO VISIBILITY

IDZ012-014-241400-
SOUTHWEST IDAHO


CITY           SKY/WX    TMP DP  RH WIND       PRES   REMARKS
BOISE          LGT RAIN  49  46  90 NW14      29.99R
CALDWELL       LGT RAIN  47  45  93 W8        30.02R
MOUNTAIN HOME  HVY RAIN  49  49 100 W10       29.97R FOG
$$

IDZ016-017-241400-
SOUTHCENTRAL IDAHO


CITY           SKY/WX    TMP DP  RH WIND       PRES   REMARKS
BURLEY         MOCLDY    48  42  80 W9        29.96R
JEROME         LGT RAIN  47  45  93 W9        29.97R
TWIN FALLS     CLOUDY    47  44  90 W15       29.98R
$$

IDZ019>023-241400-
SOUTHEAST IDAHO


CITY           SKY/WX    TMP DP  RH WIND       PRES   REMARKS
IDAHO FALLS    CLOUDY    44  39  82 S14       29.91R
POCATELLO      PTCLDY    48  40  73 SW15      29.94S
REXBURG        CLOUDY    44  38  79 SW5       29.89R
$$

IDZ006-010-011-018-031-032-241400-
CENTRAL IDAHO MOUNTAINS


CITY           SKY/WX    TMP DP  RH WIND       PRES   REMARKS
MCCALL         MOCLDY    37  35  92 CALM      29.96S
HAILEY         CLOUDY    43  43 100 E9        29.93S
STANLEY          N/A     37  34  89 CALM      29.97S
SALMON         CLOUDY    41  38  89 S3        29.96R
CHALLIS        CLOUDY    42  38  85 NW6       29.93R
$$

IDZ002-004-006-007-026-241400-
NORTHERN IDAHO


CITY           SKY/WX    TMP DP  RH WIND       PRES   REMARKS
LEWISTON       PTCLDY    43  35  73 S3        30.03R
LOWELL           N/A     42  42 100 CALM      30.05R
COEUR D`ALENE  MOCLDY    37  34  89 S3        29.99R
MULLAN PASS    CLOUDY    27  24  89 VRB7      29.91R WCI  19
$$




USA.gov is the U.S. government's official web portal to all federal, state and local government web resources and services.